2026-023E

Last updated on Sun Mar 08 2026 00:02:12 GMT+0000 (Coordinated Universal Time)

1 67678U 26023E 26066.61663830 .00019200 00000+0 81209-3 0 9994 2 67678 96.6314 139.7953 0020355 133.9192 226.3732 15.23043338 4534
UTC large
Height (km)
Speed (km/s)
/
Latitude / Longitude
Inclination (degrees)
Orbital Period (minutes)
Azimuth
Elevation
Range (km)
Doppler Factor

Next 0 passes for location: London (51.5072 / 0.1276)

Sorry there are no passes over London.